RH
10 8 8 8 8 10 18 23 27 22 18 17 18 17 17 17 20 17 16 15 21 25 20 10 10 9 18 19 18 19 26 29 22 19 18 26 38 61 58 64 83 94 95 84 92
9 6 5 4 4 4 6 7 7 6 8 10 10 11 9 9 11 14 23 14 20 22 15 8 15 23 23 19 17 20 28 22 18 16 17 34 44 61 58 67 91 94 100 99 100
17 10 7 5 4 5 4 4 3 2 3 5 6 7 6 8 11 19 23 22 20 21 12 14 20 25 22 19 18 18 23 16 15 14 19 54 55 53 50 56 69 89 92 97 100
84 29 26 9 5 5 4 3 3 3 2 3 4 7 6 12 22 31 25 27 20 16 9 17 20 16 16 17 15 17 16 15 13 15 20 40 54 75 62 64 57 72 87 91 96
74 87 79 30 12 7 4 4 3 3 2 3 5 10 15 45 15 10 12 29 22 17 9 17 17 17 17 16 19 21 17 15 14 20 44 45 66 84 89 83 83 80 85 95 99
88 92 82 47 48 11 8 4 4 3 4 4 10 13 46 81 5 16 22 33 27 20 12 9 16 18 17 21 23 21 22 20 15 14 45 73 86 66 91 86 89 87 95 100 99
90 88 85 85 64 26 14 8 4 3 4 5 17 32 78 22 2 20 31 35 34 24 14 10 19 22 19 22 21 20 22 21 18 16 35 40 49 69 83 87 90 88 90 89 86
82 71 69 74 79 54 13 14 6 4 5 6 19 42 67 2 4 5 18 27 30 33 18 16 20 21 20 20 22 24 24 25 18 30 32 30 44 59 78 84 81 80 83 80 72
81 74 61 62 73 61 25 8 7 6 4 6 40 67 58 20 22 17 8 15 29 30 20 20 22 20 20 27 33 30 34 29 26 23 37 36 45 50 81 81 84 73 79 82 82
79 76 73 66 59 59 36 10 5 4 5 27 97 81 31 14 30 30 21 18 25 30 27 27 22 27 32 34 41 35 32 27 29 35 38 51 47 59 64 70 72 68 71 82 76
86 81 82 69 59 67 51 23 29 72 72 74 72 44 27 23 30 28 24 18 24 31 34 24 34 41 33 32 27 28 30 30 23 27 39 50 48 57 67 75 71 65 64 76 80
89 86 86 73 56 63 62 64 58 80 73 47 60 67 50 49 55 27 30 24 26 41 31 30 38 30 28 28 29 29 30 29 22 23 29 52 53 52 67 71 76 64 64 67 79
82 85 86 79 63 53 74 61 93 99 91 53 38 43 43 34 56 32 32 24 34 42 36 35 31 26 29 29 30 29 31 29 22 21 26 51 54 54 47 58 54 63 57 67 70
84 84 89 80 52 68 79 92 90 96 88 44 36 26 35 29 32 7 19 22 29 39 39 33 25 27 30 30 26 34 26 23 21 28 33 28 44 70 53 55 53 54 53 67 74
81 80 87 82 62 82 88 86 82 91 23 13 23 11 25 22 14 19 10 25 28 38 36 41 34 32 32 28 26 31 27 24 23 28 29 30 36 33 52 55 52 55 49 59 69
86 87 83 84 76 47 66 69 81 87 72 33 19 24 26 20 20 21 22 22 24 35 34 34 24 27 28 25 25 22 20 24 29 36 47 34 38 44 63 45 41 45 43 51 66
88 88 90 81 79 62 91 84 98 95 21 13 25 29 28 26 24 24 29 32 36 43 42 37 35 28 24 28 24 24 30 44 47 55 58 39 46 44 30 37 40 43 43 42 51
94 88 89 75 72 70 90 98 99 45 29 20 22 18 31 30 27 26 33 38 31 31 39 38 50 30 24 27 28 29 32 54 54 70 47 49 48 38 27 28 30 34 39 38 44
98 99 98 72 72 80 96 98 72 50 35 25 16 18 21 21 34 32 38 35 33 30 41 46 40 25 22 21 23 28 34 30 40 57 66 55 46 34 30 28 29 25 33 37 43
100 100 97 78 79 89 100 88 66 44 36 42 41 22 25 27 36 46 43 34 33 30 26 34 44 28 22 21 22 23 23 35 51 55 65 58 52 44 33 25 24 25 36 37 38
100 100 96 86 94 99 96 85 58 45 45 47 47 49 32 34 32 32 37 39 38 33 26 29 34 35 29 32 29 27 30 34 40 60 64 66 57 45 35 29 24 23 19 29 33
100 100 93 87 99 85 88 70 56 55 48 48 48 46 40 39 40 33 38 36 53 49 56 46 37 42 33 23 24 24 25 32 49 53 63 71 46 32 30 35 25 21 16 16 19
100 100 98 84 94 92 70 67 63 61 53 51 50 46 36 39 46 41 45 58 54 60 73 67 70 54 42 31 28 30 26 25 40 59 62 71 52 30 32 29 23 16 15 19 21
100 99 100 100 82 72 74 68 68 59 62 61 60 55 48 48 43 50 50 50 52 66 62 67 74 66 60 38 32 33 27 26 30 61 50 56 40 36 32 34 28 20 17 16 24
100 98 97 97 94 83 69 65 69 69 60 58 66 59 58 62 49 49 44 63 53 70 70 79 94 82 69 50 30 28 30 33 33 37 47 40 47 34 33 34 30 22 20 18 19
99 97 98 80 83 88 77 75 68 64 57 62 70 48 52 61 52 58 48 47 66 73 71 80 94 88 78 52 38 31 26 30 29 34 37 33 37 34 28 27 28 23 20 20 18
100 98 88 82 92 96 86 74 66 60 55 52 51 56 53 46 38 41 58 64 67 74 88 85 94 98 89 64 48 50 32 26 34 31 31 43 38 30 31 31 32 26 23 20 18
Wind_Speed
19 20 20 20 20 22 22 23 22 22 22 22 22 22 22 25 27 25 24 13 5 6 6 6 3 6 6 5 7 4 1 5 5 4 5 4 5 1 4 8 4 4 2 10 2
20 19 19 19 18 19 19 19 20 20 22 22 22 22 20 23 28 26 6 2 6 5 6 7 7 4 4 4 3 4 3 7 7 4 2 7 7 8 4 3 4 2 5 3 4
22 22 22 20 20 18 18 17 17 18 19 19 20 21 18 21 24 5 2 2 2 6 7 10 8 7 11 9 4 4 6 11 18 15 4 10 7 4 9 2 4 7 4 2 5
21 23 24 22 22 21 19 17 18 18 17 18 19 20 18 14 6 4 5 8 5 7 8 13 8 3 2 3 4 2 20 18 17 10 3 7 9 6 4 4 4 6 8 9 5
23 23 24 24 24 24 21 18 17 18 18 17 18 18 18 6 24 17 18 9 10 9 10 14 10 6 3 5 8 4 7 13 6 6 12 16 6 9 7 8 13 12 11 10 9
23 23 24 26 25 27 23 21 19 19 18 17 16 18 14 8 13 8 12 12 11 12 12 15 9 5 11 5 3 10 15 11 10 8 13 11 5 3 9 15 15 12 12 11 10
20 23 24 25 28 28 26 24 20 19 19 17 16 17 17 30 17 9 15 15 9 10 14 13 12 10 6 6 7 13 6 9 9 7 6 24 4 3 19 16 16 14 13 10 7
21 22 20 25 26 27 29 25 23 19 19 17 16 16 16 14 17 20 25 21 12 10 15 13 7 15 5 4 9 5 5 2 6 3 6 3 4 5 21 22 17 14 15 13 10
22 20 20 21 23 26 28 27 22 19 20 18 14 12 17 9 11 9 22 31 15 11 15 12 12 7 3 3 4 2 5 5 11 9 6 3 3 9 25 19 19 17 16 16 12
20 21 21 21 22 23 28 24 19 19 17 14 8 8 16 12 8 13 8 21 17 10 14 13 7 3 2 3 6 5 4 4 7 5 3 5 6 6 23 19 21 22 20 20 17
21 19 21 21 20 18 25 17 6 3 3 10 8 16 23 14 17 8 12 20 15 15 7 5 4 8 11 10 8 5 7 10 14 10 6 8 5 11 17 16 16 23 24 23 23
21 19 19 18 18 15 17 14 3 7 14 22 22 35 39 29 16 15 6 16 11 9 6 3 14 10 9 8 8 9 10 17 10 4 5 6 8 3 8 11 22 24 29 28 25
19 19 16 18 19 11 12 10 11 16 7 15 29 28 32 25 25 28 12 20 5 6 9 12 8 14 10 11 10 13 10 13 9 3 3 7 5 5 6 12 12 25 32 31 35
18 17 14 14 14 8 6 4 13 11 4 8 8 14 24 20 11 34 29 16 6 14 8 8 13 12 8 11 11 11 13 10 7 3 4 5 5 5 7 6 9 17 29 35 39
18 16 15 12 11 12 3 11 11 5 5 6 6 6 14 24 14 19 34 23 14 10 8 9 7 12 16 19 11 14 15 9 5 4 2 5 2 7 4 8 9 12 29 39 45
18 16 14 17 20 16 17 15 3 2 9 6 5 7 9 14 4 6 20 18 7 6 9 9 14 6 8 10 10 10 3 3 3 2 1 5 5 4 5 12 9 12 30 40 45
17 16 17 19 22 9 10 6 2 7 4 4 2 6 6 8 4 2 7 11 8 7 13 12 20 15 9 7 13 5 5 2 3 2 6 5 3 7 4 8 16 18 31 37 47
17 16 19 22 15 9 8 3 11 3 11 4 6 9 1 4 5 4 6 5 10 4 4 12 6 17 12 17 6 8 9 6 6 4 5 3 5 6 7 4 16 24 33 42 37
16 19 22 22 15 11 4 8 6 5 6 7 13 6 4 1 5 9 8 8 7 14 7 6 8 8 15 11 8 6 5 8 5 2 2 4 6 7 8 8 10 20 31 39 38
20 22 27 20 18 14 5 18 7 7 4 9 3 2 3 5 4 6 2 4 7 10 14 5 6 6 16 6 12 13 5 2 1 6 4 3 4 5 8 9 2 2 19 31 40
22 12 16 26 21 14 11 12 10 17 11 3 6 4 3 5 6 3 4 6 2 3 17 9 10 8 5 5 15 2 4 1 5 5 6 2 5 8 11 7 4 5 23 36 34
23 5 18 31 13 11 19 12 6 10 12 12 5 5 9 4 3 3 3 5 6 2 4 5 7 12 23 17 10 7 11 11 6 4 3 5 9 6 7 9 6 10 21 26 33
12 9 29 42 12 19 15 16 21 3 6 3 7 10 2 4 3 5 6 2 7 4 4 6 4 4 7 9 5 8 5 10 5 4 9 7 5 5 5 6 14 5 10 20 26
7 5 11 35 18 18 20 21 20 16 22 23 12 9 5 3 6 7 2 3 3 6 11 8 5 5 11 7 5 5 11 10 11 6 5 7 7 5 5 7 5 7 12 17 25
19 7 11 9 20 14 15 10 24 19 16 14 6 19 9 5 5 7 4 2 2 2 5 4 6 12 17 14 18 19 9 9 14 7 9 7 9 10 10 11 15 17 12 9 22
13 10 9 1 21 22 20 23 24 17 12 13 15 4 17 20 9 8 7 5 5 2 3 2 2 10 10 13 16 20 20 16 15 10 7 8 8 8 19 22 14 20 26 23 19
35 21 15 14 11 17 31 34 16 16 13 32 15 15 13 7 14 14 11 10 6 7 3 5 3 5 6 16 13 11 27 19 6 7 6 8 8 8 9 10 17 28 33 34 31
Wind_Direction
293 293 293 291 292 292 293 295 298 300 302 304 308 311 316 312 304 306 302 290 230 230 289 276 209 152 211 240 237 265 45 263 252 278 261 187 133 75 96 97 44 1 295 259 252
293 294 296 296 295 296 297 299 301 301 300 301 303 306 313 312 308 307 295 232 215 251 286 241 177 200 254 239 229 138 141 246 207 271 236 63 120 154 148 112 80 22 125 170 150
291 292 292 295 295 295 298 304 308 309 309 306 302 303 307 311 317 295 56 16 220 267 267 211 229 266 244 243 221 193 218 261 276 241 161 113 94 140 130 89 181 219 156 195 204
305 297 295 290 290 293 294 299 303 307 314 316 310 307 304 306 276 197 326 325 268 258 243 221 244 222 272 244 249 275 271 253 263 226 172 147 129 73 53 137 159 156 166 171 219
296 300 306 298 291 287 290 296 298 303 310 316 313 308 314 277 253 252 272 270 273 256 239 212 239 235 222 248 309 217 295 299 268 60 116 137 116 131 126 129 127 128 177 187 198
286 293 300 302 301 288 287 288 294 297 306 312 311 304 312 269 280 251 210 240 268 253 242 220 222 235 280 260 334 302 293 296 288 281 148 123 166 68 172 154 150 158 173 181 194
303 290 290 297 301 297 291 285 285 291 300 306 305 303 285 260 273 233 225 222 228 254 239 219 234 279 266 322 320 305 320 333 296 280 133 124 112 231 164 160 159 166 168 177 194
308 307 305 290 295 300 291 290 284 288 291 295 294 295 265 294 273 238 223 228 237 228 240 208 252 285 257 308 336 330 328 322 283 111 145 162 237 218 171 167 169 172 169 179 187
301 306 310 311 295 301 300 289 288 284 281 285 290 275 269 274 276 290 231 227 220 235 228 247 280 246 294 74 354 332 250 265 301 213 143 152 190 219 182 177 177 173 184 185 192
301 301 303 309 311 302 307 301 292 280 271 268 253 276 256 249 314 306 267 215 217 222 241 252 230 176 52 108 225 208 235 290 265 226 133 179 198 191 189 184 183 182 193 191 198
296 300 307 305 314 306 316 339 315 254 246 221 217 238 272 277 290 283 248 196 203 221 186 196 186 205 207 214 235 265 263 264 273 240 152 214 218 179 187 194 192 186 196 202 205
286 295 300 303 308 296 316 313 13 351 297 275 261 258 264 266 295 253 253 189 185 202 149 213 235 222 203 225 241 256 270 281 282 215 146 179 258 118 178 213 200 189 201 207 209
280 282 292 307 302 299 302 325 343 341 268 273 252 247 244 245 236 250 237 201 180 172 201 204 217 201 212 240 246 256 251 262 239 256 46 109 319 252 196 191 215 217 210 206 206
280 280 278 296 295 277 301 316 333 330 292 272 226 247 222 212 231 231 225 206 215 200 200 226 239 245 233 237 231 262 254 251 266 128 229 146 249 278 225 222 210 222 198 200 201
272 273 266 269 266 269 241 305 334 166 302 243 214 224 198 176 154 206 216 202 206 198 163 226 177 203 231 235 230 250 243 241 226 199 139 306 111 271 166 238 231 210 201 196 203
261 257 257 248 261 259 291 296 345 102 245 278 206 158 130 212 226 128 182 190 223 210 238 223 254 194 215 237 220 246 189 272 360 101 317 241 160 257 184 222 223 220 204 199 200
248 246 242 247 252 270 288 323 176 219 295 259 269 163 164 172 255 115 156 179 184 170 225 243 249 259 259 282 267 198 104 270 306 325 226 242 234 232 239 240 216 200 209 202 205
241 236 235 244 248 260 275 236 218 225 243 10 342 12 359 117 255 220 154 185 217 204 175 215 281 228 226 213 221 212 168 164 211 198 250 296 246 247 226 199 202 223 214 214 208
238 229 228 229 216 229 242 229 235 151 267 283 300 310 292 253 203 195 217 219 201 196 190 184 239 258 215 221 178 232 171 190 160 353 121 235 285 310 283 268 206 225 212 214 211
231 226 227 215 203 201 231 232 234 232 317 16 323 293 341 8 51 51 223 261 218 188 204 237 267 236 258 258 242 207 196 128 37 186 235 236 252 232 295 293 42 229 208 210 213
230 216 220 207 192 189 223 222 229 254 294 267 251 317 339 353 22 30 243 307 343 306 217 199 233 258 309 237 235 226 200 157 146 149 187 208 252 220 233 224 217 234 240 227 214
224 212 177 189 192 209 227 210 244 277 278 240 325 274 239 295 291 282 248 302 42 16 14 325 226 227 244 249 262 235 222 188 188 206 228 173 245 272 243 243 204 261 246 235 233
215 176 178 186 208 217 225 233 244 269 247 269 233 233 249 174 235 242 230 159 74 74 71 343 323 261 271 261 239 224 224 218 149 126 195 181 249 248 245 234 235 124 209 198 203
203 177 183 200 221 214 217 228 226 228 250 258 279 312 318 179 201 255 302 290 352 101 99 119 286 245 253 278 228 230 226 217 195 181 190 218 221 232 239 241 276 194 199 207 191
207 219 190 205 210 209 202 201 221 222 212 223 258 238 257 285 197 243 218 248 264 37 54 78 279 326 304 280 264 249 241 221 208 200 195 208 203 216 212 213 241 225 210 213 209
209 199 199 64 192 206 218 222 223 211 216 213 232 245 219 238 239 300 324 293 202 352 124 136 267 350 304 284 262 247 239 251 229 207 216 225 235 222 225 225 227 235 240 228 218
219 231 213 204 182 192 215 227 217 220 229 233 240 224 247 238 233 255 267 266 227 161 134 146 165 56 281 330 295 264 235 229 242 221 179 213 220 235 244 226 215 225 232 232 235